Simultaneous Nadir Overpasses (SNOs) Predictions

Prediction of SNOs between FY3D and TERRA Satellite Orbit:

Table of predicted SNOs for the next 14.0 days since TLE Epoch: 5/14/2022
Index Date (FY3D) Time (FY3D) Lat,Lon (FY3D) SZA (FY3D ) Date (TERRA) Time (TERRA) Lat,Lon (TERRA) SZA (TERRA ) Distance(km) Time Diff (sec)
1 05/15/2022 20:46:14 71.42,-131.80 52.31 05/15/2022 20:47:22 71.44,-131.81 52.32 2.13 68
2 05/15/2022 21:36:58 -71.36, 35.63 127.77 05/15/2022 21:36:51 -71.37, 35.71 127.76 3.56 7
3 05/15/2022 22:27:35 70.88,-156.24 51.75 05/15/2022 22:26:24 70.95,-157.31 51.81 39.53 71
4 05/18/2022 12:13:19 -71.45, 176.39 128.26 05/18/2022 12:14:18 -71.45, 176.44 128.27 1.79 59
5 05/18/2022 13:04:03 71.35, -16.11 51.63 05/18/2022 13:03:45 71.35, -16.08 51.62 1.05 18
6 05/18/2022 13:54:34 -70.60, 152.47 129.12 05/18/2022 13:53:26 -70.63, 150.45 129.11 74.73 68
7 05/21/2022 03:40:25 71.45, 124.65 51.18 05/21/2022 03:41:12 71.46, 124.71 51.19 2.33 47
8 05/21/2022 04:31:08 -71.33, -67.82 128.95 05/21/2022 04:30:42 -71.34, -67.84 128.94 1.67 26
9 05/23/2022 19:07:30 -71.43, 72.93 129.36 05/23/2022 19:08:09 -71.44, 72.92 129.35 0.41 39
10 05/23/2022 19:58:14 71.33,-119.58 50.54 05/23/2022 19:57:36 71.33,-119.61 50.53 1.21 38
11 05/26/2022 10:34:36 71.45, 21.15 50.19 05/26/2022 10:35:02 71.46, 21.21 50.19 2.37 26
12 05/26/2022 11:25:19 -71.32,-171.31 129.95 05/26/2022 11:24:32 -71.35,-171.33 129.93 3.12 47



Historial Predications of SNOs between FY3D and TERRA
